QPF
0.00 0.01 0.01 0.04 0.04 0.02 0.01 0.00 0.01 0.01 0.01 0.00 0.00 0.00 0.00 0.00 0.00 0.00 0.00 0.01 0.01 0.02 0.02 0.02 0.01 0.00 0.00 0.00 0.00 0.00 0.00 0.01 0.01 0.01 0.01 0.02 0.03 0.02 0.02 0.01 0.02 0.03 0.01 0.01 0.01 0.00 0.00 0.00 0.00
0.00 0.01 0.03 0.05 0.05 0.02 0.00 0.00 0.01 0.01 0.01 0.01 0.01 0.00 0.00 0.00 0.00 0.00 0.00 0.01 0.01 0.02 0.03 0.02 0.02 0.01 0.00 0.00 0.00 0.00 0.00 0.01 0.01 0.01 0.02 0.03 0.03 0.02 0.02 0.03 0.03 0.02 0.02 0.01 0.00 0.00 0.00 0.00 0.00
0.00 0.01 0.04 0.05 0.05 0.02 0.01 0.00 0.00 0.01 0.01 0.01 0.01 0.01 0.00 0.00 0.00 0.01 0.01 0.02 0.02 0.02 0.02 0.02 0.03 0.02 0.01 0.01 0.01 0.00 0.01 0.01 0.01 0.02 0.03 0.04 0.04 0.02 0.02 0.04 0.03 0.02 0.02 0.01 0.00 0.00 0.00 0.00 0.00
0.00 0.01 0.03 0.04 0.03 0.02 0.01 0.01 0.00 0.00 0.01 0.01 0.01 0.02 0.01 0.01 0.01 0.02 0.03 0.04 0.05 0.05 0.04 0.03 0.03 0.02 0.02 0.01 0.01 0.01 0.01 0.01 0.01 0.02 0.03 0.05 0.04 0.03 0.03 0.04 0.02 0.02 0.02 0.01 0.00 0.00 0.00 0.00 0.00
0.00 0.01 0.02 0.03 0.02 0.01 0.01 0.01 0.01 0.00 0.01 0.01 0.01 0.02 0.01 0.02 0.02 0.03 0.05 0.06 0.06 0.06 0.06 0.06 0.04 0.03 0.02 0.03 0.02 0.01 0.01 0.01 0.02 0.02 0.03 0.05 0.05 0.04 0.03 0.03 0.01 0.01 0.01 0.00 0.00 0.00 0.00 0.00 0.00
0.01 0.01 0.01 0.01 0.02 0.01 0.01 0.01 0.01 0.01 0.01 0.01 0.02 0.02 0.01 0.02 0.03 0.05 0.06 0.07 0.08 0.07 0.04 0.04 0.05 0.04 0.03 0.04 0.03 0.02 0.02 0.02 0.02 0.02 0.03 0.06 0.07 0.04 0.03 0.02 0.01 0.01 0.00 0.00 0.00 0.00 0.00 0.00 0.00
0.01 0.01 0.01 0.01 0.02 0.02 0.01 0.01 0.01 0.01 0.01 0.02 0.02 0.03 0.03 0.04 0.06 0.07 0.08 0.10 0.11 0.12 0.10 0.07 0.06 0.05 0.04 0.03 0.03 0.03 0.02 0.02 0.02 0.02 0.04 0.06 0.08 0.05 0.04 0.02 0.01 0.01 0.00 0.00 0.00 0.00 0.00 0.00 0.00
0.01 0.01 0.01 0.01 0.01 0.03 0.02 0.02 0.01 0.02 0.02 0.02 0.03 0.04 0.04 0.05 0.08 0.10 0.12 0.14 0.15 0.17 0.17 0.14 0.10 0.08 0.06 0.04 0.04 0.03 0.03 0.02 0.02 0.02 0.03 0.03 0.04 0.04 0.04 0.02 0.01 0.01 0.00 0.00 0.00 0.00 0.00 0.00 0.00
0.01 0.01 0.01 0.01 0.01 0.02 0.02 0.02 0.01 0.01 0.02 0.03 0.03 0.03 0.06 0.06 0.09 0.11 0.13 0.17 0.21 0.22 0.23 0.23 0.18 0.13 0.10 0.07 0.05 0.04 0.03 0.02 0.02 0.02 0.02 0.03 0.02 0.03 0.03 0.02 0.01 0.01 0.00 0.00 0.00 0.00 0.00 0.00 0.00
0.02 0.01 0.00 0.00 0.01 0.01 0.02 0.04 0.03 0.02 0.02 0.03 0.04 0.03 0.07 0.09 0.10 0.11 0.13 0.16 0.21 0.26 0.26 0.26 0.24 0.21 0.14 0.09 0.06 0.05 0.04 0.03 0.02 0.01 0.02 0.02 0.02 0.02 0.02 0.01 0.01 0.00 0.00 0.00 0.00 0.00 0.00 0.00 0.00
0.01 0.01 0.00 0.00 0.00 0.01 0.02 0.03 0.04 0.03 0.02 0.03 0.05 0.05 0.06 0.11 0.13 0.11 0.13 0.15 0.19 0.25 0.29 0.27 0.24 0.23 0.19 0.13 0.09 0.07 0.05 0.03 0.02 0.01 0.02 0.02 0.02 0.02 0.02 0.02 0.01 0.00 0.00 0.00 0.00 0.00 0.00 0.00 0.00
0.01 0.01 0.00 0.00 0.00 0.01 0.02 0.03 0.04 0.03 0.02 0.03 0.04 0.05 0.07 0.08 0.13 0.12 0.15 0.20 0.18 0.22 0.29 0.30 0.27 0.22 0.20 0.16 0.14 0.11 0.07 0.04 0.02 0.01 0.01 0.02 0.02 0.02 0.02 0.01 0.01 0.00 0.00 0.00 0.00 0.00 0.00 0.00 0.00
0.01 0.01 0.01 0.00 0.01 0.02 0.03 0.03 0.04 0.03 0.03 0.04 0.05 0.06 0.07 0.07 0.10 0.14 0.15 0.21 0.22 0.21 0.25 0.32 0.32 0.24 0.20 0.19 0.18 0.17 0.11 0.05 0.03 0.02 0.01 0.01 0.01 0.01 0.01 0.01 0.01 0.00 0.00 0.00 0.00 0.00 0.00 0.00 0.00
0.01 0.01 0.01 0.01 0.01 0.02 0.04 0.03 0.03 0.03 0.02 0.04 0.06 0.06 0.06 0.06 0.06 0.12 0.16 0.20 0.24 0.23 0.24 0.31 0.36 0.33 0.24 0.19 0.19 0.20 0.16 0.09 0.05 0.03 0.02 0.02 0.01 0.01 0.02 0.01 0.01 0.01 0.00 0.00 0.00 0.00 0.00 0.00 0.00
0.02 0.02 0.01 0.01 0.02 0.02 0.04 0.04 0.03 0.03 0.02 0.03 0.05 0.06 0.06 0.07 0.07 0.09 0.14 0.18 0.23 0.24 0.22 0.28 0.34 0.38 0.32 0.23 0.21 0.21 0.19 0.16 0.09 0.05 0.04 0.03 0.02 0.02 0.02 0.02 0.01 0.01 0.01 0.00 0.00 0.00 0.00 0.00 0.00
0.03 0.03 0.03 0.02 0.02 0.02 0.05 0.05 0.04 0.04 0.03 0.02 0.05 0.07 0.08 0.10 0.11 0.11 0.12 0.14 0.18 0.23 0.21 0.25 0.31 0.36 0.37 0.28 0.22 0.20 0.20 0.20 0.14 0.09 0.06 0.04 0.03 0.02 0.02 0.03 0.02 0.01 0.01 0.00 0.01 0.00 0.00 0.00 0.00
0.04 0.04 0.03 0.04 0.03 0.02 0.04 0.05 0.05 0.05 0.03 0.04 0.05 0.08 0.11 0.12 0.13 0.14 0.12 0.13 0.16 0.19 0.19 0.21 0.26 0.31 0.34 0.35 0.29 0.24 0.21 0.21 0.17 0.13 0.09 0.07 0.06 0.03 0.02 0.02 0.03 0.02 0.01 0.01 0.01 0.01 0.00 0.00 0.00
0.05 0.04 0.03 0.05 0.04 0.03 0.04 0.05 0.06 0.07 0.06 0.05 0.06 0.07 0.12 0.15 0.14 0.18 0.15 0.13 0.15 0.19 0.19 0.19 0.22 0.27 0.33 0.35 0.34 0.29 0.25 0.24 0.20 0.15 0.11 0.09 0.08 0.06 0.04 0.03 0.03 0.04 0.03 0.02 0.01 0.01 0.01 0.01 0.01
0.04 0.04 0.02 0.03 0.04 0.04 0.04 0.04 0.06 0.09 0.08 0.05 0.06 0.10 0.10 0.15 0.15 0.17 0.17 0.14 0.12 0.18 0.18 0.18 0.19 0.23 0.28 0.33 0.34 0.31 0.26 0.24 0.24 0.20 0.14 0.10 0.09 0.07 0.06 0.05 0.05 0.04 0.05 0.04 0.03 0.02 0.02 0.01 0.02
0.04 0.03 0.02 0.03 0.04 0.04 0.05 0.07 0.09 0.10 0.07 0.05 0.06 0.10 0.10 0.10 0.15 0.18 0.19 0.17 0.13 0.17 0.19 0.16 0.17 0.21 0.22 0.26 0.33 0.31 0.28 0.23 0.24 0.23 0.19 0.12 0.08 0.08 0.06 0.05 0.04 0.03 0.04 0.05 0.03 0.02 0.03 0.03 0.03
0.03 0.02 0.02 0.05 0.05 0.06 0.10 0.14 0.14 0.11 0.09 0.08 0.08 0.11 0.11 0.10 0.17 0.19 0.19 0.20 0.16 0.18 0.21 0.17 0.19 0.21 0.24 0.23 0.30 0.34 0.32 0.26 0.25 0.26 0.23 0.16 0.10 0.09 0.07 0.05 0.04 0.03 0.02 0.02 0.03 0.04 0.05 0.04 0.03
0.04 0.03 0.04 0.05 0.06 0.10 0.12 0.16 0.15 0.14 0.15 0.12 0.11 0.12 0.13 0.14 0.17 0.16 0.16 0.20 0.17 0.19 0.23 0.18 0.20 0.23 0.27 0.24 0.26 0.31 0.29 0.24 0.21 0.20 0.21 0.20 0.13 0.10 0.09 0.07 0.06 0.05 0.04 0.04 0.04 0.04 0.04 0.04 0.04
0.05 0.05 0.06 0.07 0.07 0.09 0.07 0.12 0.16 0.16 0.18 0.18 0.16 0.17 0.18 0.16 0.16 0.14 0.13 0.13 0.13 0.16 0.21 0.18 0.18 0.21 0.28 0.25 0.25 0.29 0.26 0.21 0.19 0.21 0.20 0.20 0.17 0.12 0.10 0.08 0.06 0.05 0.05 0.04 0.04 0.04 0.05 0.05 0.05
0.05 0.06 0.05 0.05 0.07 0.09 0.06 0.09 0.12 0.16 0.19 0.19 0.17 0.18 0.16 0.15 0.15 0.12 0.11 0.11 0.11 0.14 0.20 0.18 0.19 0.19 0.23 0.25 0.24 0.26 0.24 0.20 0.20 0.23 0.20 0.17 0.15 0.13 0.10 0.07 0.05 0.05 0.05 0.05 0.05 0.05 0.05 0.06 0.06
0.04 0.05 0.06 0.05 0.07 0.08 0.06 0.07 0.12 0.15 0.13 0.14 0.15 0.16 0.15 0.13 0.12 0.11 0.12 0.14 0.14 0.18 0.20 0.16 0.14 0.15 0.17 0.22 0.22 0.22 0.21 0.21 0.19 0.19 0.19 0.16 0.14 0.12 0.10 0.08 0.05 0.04 0.04 0.04 0.04 0.05 0.05 0.05 0.06
0.02 0.03 0.05 0.05 0.06 0.06 0.06 0.08 0.10 0.09 0.10 0.13 0.15 0.15 0.12 0.10 0.13 0.12 0.13 0.17 0.17 0.18 0.20 0.16 0.13 0.14 0.15 0.17 0.16 0.20 0.18 0.19 0.18 0.17 0.16 0.16 0.14 0.12 0.10 0.08 0.06 0.05 0.05 0.05 0.05 0.06 0.05 0.05 0.05
0.01 0.01 0.02 0.05 0.06 0.06 0.07 0.07 0.09 0.09 0.11 0.13 0.14 0.15 0.14 0.12 0.14 0.14 0.17 0.20 0.18 0.18 0.18 0.18 0.16 0.15 0.15 0.14 0.14 0.17 0.17 0.16 0.18 0.17 0.16 0.15 0.14 0.12 0.11 0.10 0.08 0.06 0.06 0.06 0.06 0.06 0.07 0.07 0.07
0.01 0.02 0.03 0.05 0.07 0.08 0.06 0.08 0.15 0.14 0.14 0.16 0.16 0.16 0.17 0.15 0.16 0.18 0.19 0.20 0.18 0.18 0.17 0.18 0.16 0.14 0.15 0.15 0.14 0.15 0.17 0.17 0.18 0.18 0.16 0.14 0.13 0.13 0.13 0.10 0.07 0.06 0.06 0.07 0.07 0.06 0.07 0.08 0.07
0.01 0.03 0.04 0.05 0.07 0.09 0.08 0.13 0.16 0.14 0.14 0.15 0.15 0.15 0.15 0.16 0.16 0.19 0.22 0.23 0.21 0.19 0.17 0.18 0.14 0.13 0.15 0.15 0.14 0.16 0.17 0.17 0.19 0.19 0.18 0.15 0.13 0.12 0.12 0.13 0.10 0.08 0.07 0.06 0.06 0.06 0.06 0.06 0.06
0.01 0.02 0.03 0.05 0.04 0.04 0.07 0.15 0.15 0.13 0.12 0.12 0.13 0.13 0.14 0.15 0.16 0.19 0.21 0.22 0.22 0.18 0.18 0.18 0.15 0.15 0.15 0.16 0.15 0.17 0.20 0.19 0.18 0.16 0.17 0.19 0.17 0.14 0.13 0.12 0.12 0.11 0.10 0.09 0.07 0.07 0.07 0.06 0.07
MSLP
1014.59 1015.10 1015.75 1016.43 1017.04 1017.48 1017.68 1017.62 1017.31 1016.80 1016.16 1015.45 1014.73 1014.02 1013.33 1012.66 1012.00 1011.36 1010.76 1010.24 1009.85 1009.64 1009.63 1009.81 1010.15 1010.59 1011.06 1011.50 1011.86 1012.13 1012.32 1012.48 1012.65 1012.89 1013.20 1013.60 1014.05 1014.52 1014.97 1015.36 1015.68 1015.94 1016.15 1016.34 1016.54 1016.74 1016.96 1017.18 1017.38
1014.98 1015.54 1016.18 1016.80 1017.30 1017.59 1017.61 1017.36 1016.87 1016.20 1015.42 1014.62 1013.83 1013.09 1012.39 1011.74 1011.11 1010.53 1010.00 1009.56 1009.27 1009.16 1009.25 1009.53 1009.96 1010.47 1011.01 1011.50 1011.89 1012.20 1012.42 1012.59 1012.78 1013.01 1013.32 1013.69 1014.12 1014.57 1015.01 1015.40 1015.74 1016.03 1016.29 1016.52 1016.76 1016.99 1017.23 1017.46 1017.66
1015.45 1016.01 1016.60 1017.11 1017.46 1017.58 1017.42 1017.00 1016.37 1015.59 1014.74 1013.88 1013.07 1012.33 1011.64 1011.01 1010.41 1009.87 1009.40 1009.03 1008.82 1008.80 1008.97 1009.33 1009.83 1010.40 1010.98 1011.50 1011.93 1012.25 1012.49 1012.68 1012.87 1013.10 1013.39 1013.75 1014.16 1014.58 1015.00 1015.39 1015.74 1016.06 1016.36 1016.64 1016.92 1017.20 1017.47 1017.71 1017.92
1015.97 1016.50 1017.00 1017.38 1017.56 1017.50 1017.18 1016.63 1015.91 1015.07 1014.21 1013.37 1012.58 1011.86 1011.20 1010.59 1010.03 1009.52 1009.08 1008.77 1008.62 1008.65 1008.89 1009.29 1009.83 1010.43 1011.02 1011.54 1011.97 1012.29 1012.53 1012.72 1012.91 1013.14 1013.43 1013.77 1014.16 1014.56 1014.97 1015.35 1015.72 1016.06 1016.40 1016.73 1017.05 1017.37 1017.67 1017.93 1018.15
1016.51 1016.99 1017.37 1017.60 1017.61 1017.39 1016.95 1016.31 1015.55 1014.73 1013.91 1013.13 1012.41 1011.75 1011.14 1010.56 1010.02 1009.52 1009.11 1008.82 1008.70 1008.77 1009.02 1009.44 1009.98 1010.55 1011.11 1011.60 1012.00 1012.30 1012.52 1012.72 1012.92 1013.15 1013.44 1013.79 1014.16 1014.56 1014.96 1015.35 1015.72 1016.08 1016.44 1016.81 1017.17 1017.52 1017.85 1018.12 1018.34
1017.03 1017.43 1017.70 1017.78 1017.64 1017.28 1016.75 1016.08 1015.34 1014.58 1013.85 1013.18 1012.56 1011.97 1011.41 1010.87 1010.34 1009.85 1009.44 1009.16 1009.04 1009.10 1009.35 1009.74 1010.23 1010.75 1011.25 1011.67 1012.02 1012.28 1012.49 1012.68 1012.89 1013.15 1013.47 1013.83 1014.22 1014.62 1015.02 1015.40 1015.78 1016.15 1016.53 1016.91 1017.30 1017.67 1018.01 1018.29 1018.51
1017.47 1017.80 1017.95 1017.89 1017.62 1017.17 1016.58 1015.92 1015.23 1014.58 1013.97 1013.42 1012.91 1012.42 1011.91 1011.40 1010.87 1010.38 1009.96 1009.66 1009.52 1009.56 1009.76 1010.10 1010.53 1010.97 1011.38 1011.73 1012.01 1012.23 1012.42 1012.63 1012.87 1013.17 1013.53 1013.92 1014.34 1014.76 1015.17 1015.56 1015.93 1016.30 1016.68 1017.07 1017.45 1017.82 1018.16 1018.43 1018.65
1017.79 1018.04 1018.08 1017.91 1017.54 1017.02 1016.41 1015.78 1015.17 1014.63 1014.16 1013.73 1013.33 1012.92 1012.47 1011.97 1011.45 1010.94 1010.51 1010.18 1010.01 1010.01 1010.16 1010.43 1010.77 1011.13 1011.46 1011.74 1011.96 1012.16 1012.36 1012.59 1012.88 1013.23 1013.65 1014.09 1014.55 1015.00 1015.41 1015.80 1016.17 1016.52 1016.88 1017.25 1017.62 1017.98 1018.29 1018.56 1018.76
1017.98 1018.15 1018.10 1017.83 1017.38 1016.81 1016.20 1015.61 1015.08 1014.65 1014.29 1013.97 1013.66 1013.32 1012.91 1012.43 1011.91 1011.40 1010.94 1010.59 1010.38 1010.34 1010.43 1010.64 1010.91 1011.19 1011.45 1011.68 1011.88 1012.07 1012.29 1012.57 1012.92 1013.34 1013.82 1014.32 1014.82 1015.29 1015.71 1016.10 1016.45 1016.78 1017.12 1017.46 1017.80 1018.13 1018.42 1018.66 1018.83
1018.05 1018.14 1017.99 1017.64 1017.12 1016.52 1015.90 1015.35 1014.88 1014.53 1014.26 1014.03 1013.79 1013.50 1013.12 1012.67 1012.15 1011.63 1011.16 1010.80 1010.57 1010.48 1010.54 1010.69 1010.91 1011.14 1011.36 1011.56 1011.76 1011.98 1012.24 1012.58 1012.99 1013.48 1014.01 1014.56 1015.09 1015.58 1016.01 1016.39 1016.72 1017.04 1017.34 1017.65 1017.96 1018.25 1018.51 1018.72 1018.87
1018.05 1018.04 1017.80 1017.36 1016.78 1016.14 1015.51 1014.97 1014.54 1014.23 1014.01 1013.84 1013.64 1013.39 1013.05 1012.62 1012.13 1011.63 1011.17 1010.80 1010.56 1010.45 1010.47 1010.59 1010.77 1010.98 1011.19 1011.39 1011.62 1011.88 1012.19 1012.59 1013.07 1013.61 1014.19 1014.77 1015.32 1015.82 1016.25 1016.61 1016.94 1017.23 1017.52 1017.80 1018.07 1018.33 1018.56 1018.74 1018.86
1018.00 1017.90 1017.56 1017.03 1016.38 1015.69 1015.03 1014.47 1014.04 1013.74 1013.54 1013.38 1013.22 1012.99 1012.69 1012.31 1011.86 1011.40 1010.98 1010.63 1010.40 1010.29 1010.29 1010.39 1010.55 1010.75 1010.96 1011.20 1011.46 1011.77 1012.14 1012.59 1013.11 1013.69 1014.29 1014.88 1015.44 1015.93 1016.36 1016.72 1017.03 1017.32 1017.59 1017.86 1018.11 1018.35 1018.55 1018.71 1018.80
1017.98 1017.76 1017.32 1016.69 1015.96 1015.20 1014.48 1013.88 1013.41 1013.08 1012.86 1012.70 1012.55 1012.36 1012.11 1011.79 1011.42 1011.03 1010.67 1010.37 1010.16 1010.06 1010.05 1010.14 1010.29 1010.49 1010.72 1010.99 1011.29 1011.65 1012.07 1012.55 1013.10 1013.68 1014.28 1014.86 1015.40 1015.89 1016.31 1016.67 1016.99 1017.28 1017.56 1017.82 1018.07 1018.30 1018.48 1018.62 1018.70
1017.97 1017.64 1017.08 1016.35 1015.52 1014.68 1013.88 1013.20 1012.66 1012.27 1012.01 1011.83 1011.69 1011.55 1011.37 1011.14 1010.87 1010.58 1010.31 1010.07 1009.90 1009.82 1009.82 1009.90 1010.04 1010.24 1010.49 1010.79 1011.12 1011.52 1011.96 1012.47 1013.01 1013.58 1014.15 1014.70 1015.21 1015.67 1016.09 1016.46 1016.80 1017.12 1017.42 1017.70 1017.96 1018.18 1018.36 1018.48 1018.55
1017.98 1017.51 1016.84 1016.00 1015.08 1014.15 1013.26 1012.48 1011.85 1011.38 1011.05 1010.84 1010.71 1010.61 1010.51 1010.40 1010.25 1010.09 1009.92 1009.77 1009.65 1009.59 1009.60 1009.67 1009.81 1010.01 1010.27 1010.59 1010.95 1011.37 1011.83 1012.32 1012.85 1013.38 1013.90 1014.41 1014.89 1015.34 1015.75 1016.14 1016.51 1016.86 1017.20 1017.51 1017.78 1018.02 1018.20 1018.32 1018.39
1017.92 1017.34 1016.56 1015.64 1014.63 1013.60 1012.62 1011.74 1011.00 1010.43 1010.03 1009.78 1009.64 1009.59 1009.58 1009.58 1009.57 1009.54 1009.49 1009.43 1009.38 1009.35 1009.37 1009.44 1009.58 1009.78 1010.05 1010.38 1010.77 1011.20 1011.66 1012.14 1012.63 1013.12 1013.60 1014.06 1014.50 1014.93 1015.35 1015.76 1016.17 1016.57 1016.94 1017.29 1017.59 1017.84 1018.03 1018.16 1018.24
1017.74 1017.06 1016.20 1015.20 1014.13 1013.03 1011.96 1010.98 1010.14 1009.47 1008.99 1008.68 1008.53 1008.50 1008.57 1008.67 1008.79 1008.89 1008.96 1009.00 1009.02 1009.04 1009.08 1009.16 1009.30 1009.51 1009.80 1010.16 1010.56 1011.01 1011.48 1011.95 1012.41 1012.86 1013.29 1013.70 1014.12 1014.54 1014.96 1015.40 1015.84 1016.28 1016.70 1017.08 1017.41 1017.68 1017.88 1018.02 1018.11
1017.36 1016.61 1015.71 1014.68 1013.58 1012.44 1011.31 1010.25 1009.32 1008.54 1007.96 1007.59 1007.40 1007.38 1007.49 1007.68 1007.90 1008.11 1008.29 1008.43 1008.52 1008.59 1008.66 1008.77 1008.94 1009.18 1009.51 1009.90 1010.35 1010.82 1011.31 1011.78 1012.22 1012.64 1013.03 1013.41 1013.80 1014.21 1014.64 1015.10 1015.57 1016.05 1016.50 1016.91 1017.26 1017.54 1017.76 1017.91 1018.02
1016.73 1015.96 1015.07 1014.07 1012.98 1011.84 1010.69 1009.59 1008.57 1007.71 1007.03 1006.56 1006.32 1006.27 1006.39 1006.61 1006.90 1007.20 1007.46 1007.67 1007.84 1007.97 1008.10 1008.26 1008.48 1008.78 1009.17 1009.62 1010.12 1010.65 1011.16 1011.65 1012.09 1012.49 1012.87 1013.23 1013.60 1014.00 1014.43 1014.90 1015.39 1015.88 1016.35 1016.77 1017.14 1017.43 1017.66 1017.83 1017.96
1015.88 1015.14 1014.30 1013.37 1012.36 1011.28 1010.16 1009.04 1007.98 1007.04 1006.27 1005.70 1005.37 1005.25 1005.33 1005.55 1005.85 1006.19 1006.51 1006.78 1007.02 1007.22 1007.43 1007.66 1007.96 1008.34 1008.80 1009.34 1009.92 1010.51 1011.07 1011.59 1012.05 1012.45 1012.81 1013.16 1013.52 1013.91 1014.33 1014.80 1015.29 1015.78 1016.25 1016.67 1017.04 1017.33 1017.57 1017.75 1017.89
1014.85 1014.19 1013.46 1012.66 1011.78 1010.81 1009.76 1008.69 1007.62 1006.63 1005.77 1005.11 1004.66 1004.44 1004.43 1004.59 1004.87 1005.20 1005.54 1005.86 1006.15 1006.43 1006.71 1007.03 1007.43 1007.90 1008.47 1009.09 1009.76 1010.42 1011.04 1011.60 1012.08 1012.50 1012.86 1013.20 1013.54 1013.91 1014.32 1014.77 1015.24 1015.72 1016.17 1016.58 1016.93 1017.22 1017.45 1017.63 1017.79
1013.76 1013.21 1012.63 1012.00 1011.29 1010.48 1009.58 1008.58 1007.55 1006.55 1005.64 1004.88 1004.32 1003.98 1003.85 1003.90 1004.10 1004.39 1004.71 1005.05 1005.38 1005.72 1006.09 1006.50 1006.99 1007.57 1008.22 1008.94 1009.67 1010.40 1011.07 1011.67 1012.18 1012.60 1012.96 1013.29 1013.62 1013.97 1014.35 1014.77 1015.21 1015.65 1016.07 1016.45 1016.78 1017.05 1017.27 1017.46 1017.62
1012.73 1012.30 1011.90 1011.47 1010.96 1010.35 1009.62 1008.76 1007.82 1006.84 1005.91 1005.08 1004.41 1003.94 1003.68 1003.61 1003.70 1003.91 1004.19 1004.52 1004.88 1005.26 1005.69 1006.19 1006.76 1007.41 1008.14 1008.92 1009.71 1010.47 1011.18 1011.79 1012.31 1012.74 1013.09 1013.41 1013.71 1014.03 1014.38 1014.76 1015.15 1015.55 1015.93 1016.27 1016.57 1016.81 1017.02 1017.20 1017.36
1011.86 1011.56 1011.33 1011.10 1010.81 1010.42 1009.89 1009.20 1008.39 1007.49 1006.57 1005.71 1004.97 1004.39 1004.00 1003.80 1003.77 1003.88 1004.10 1004.40 1004.76 1005.17 1005.65 1006.19 1006.82 1007.52 1008.28 1009.08 1009.88 1010.64 1011.34 1011.95 1012.46 1012.87 1013.21 1013.51 1013.78 1014.07 1014.38 1014.71 1015.05 1015.40 1015.73 1016.03 1016.29 1016.50 1016.69 1016.85 1017.00
1011.20 1011.02 1010.94 1010.90 1010.83 1010.66 1010.34 1009.85 1009.20 1008.42 1007.57 1006.72 1005.94 1005.28 1004.79 1004.48 1004.34 1004.36 1004.51 1004.77 1005.11 1005.53 1006.01 1006.58 1007.21 1007.92 1008.67 1009.44 1010.20 1010.93 1011.58 1012.15 1012.62 1013.00 1013.31 1013.58 1013.82 1014.07 1014.34 1014.62 1014.91 1015.21 1015.49 1015.74 1015.96 1016.14 1016.30 1016.44 1016.58
1010.79 1010.70 1010.74 1010.86 1010.97 1011.00 1010.89 1010.61 1010.14 1009.51 1008.77 1007.98 1007.22 1006.54 1005.99 1005.59 1005.37 1005.32 1005.40 1005.61 1005.92 1006.32 1006.80 1007.35 1007.96 1008.61 1009.31 1010.00 1010.69 1011.33 1011.90 1012.39 1012.80 1013.13 1013.40 1013.64 1013.85 1014.06 1014.28 1014.52 1014.76 1015.00 1015.23 1015.44 1015.62 1015.77 1015.90 1016.02 1016.13
1010.60 1010.56 1010.69 1010.92 1011.17 1011.37 1011.45 1011.36 1011.09 1010.63 1010.04 1009.36 1008.66 1008.00 1007.44 1007.02 1006.75 1006.64 1006.67 1006.84 1007.12 1007.49 1007.94 1008.44 1008.99 1009.57 1010.17 1010.76 1011.32 1011.85 1012.31 1012.71 1013.03 1013.30 1013.52 1013.72 1013.89 1014.07 1014.25 1014.44 1014.63 1014.82 1015.00 1015.16 1015.30 1015.42 1015.52 1015.61 1015.71
1010.58 1010.57 1010.74 1011.03 1011.38 1011.70 1011.93 1012.02 1011.93 1011.65 1011.22 1010.68 1010.10 1009.51 1009.00 1008.59 1008.31 1008.19 1008.20 1008.35 1008.60 1008.93 1009.33 1009.78 1010.25 1010.73 1011.21 1011.67 1012.10 1012.48 1012.82 1013.11 1013.35 1013.55 1013.72 1013.87 1014.00 1014.14 1014.28 1014.42 1014.57 1014.71 1014.83 1014.95 1015.05 1015.13 1015.20 1015.27 1015.34
1010.69 1010.68 1010.86 1011.17 1011.55 1011.95 1012.28 1012.50 1012.57 1012.47 1012.21 1011.84 1011.39 1010.93 1010.50 1010.15 1009.91 1009.81 1009.83 1009.96 1010.20 1010.50 1010.86 1011.24 1011.62 1012.00 1012.36 1012.68 1012.97 1013.23 1013.44 1013.63 1013.78 1013.91 1014.02 1014.12 1014.21 1014.30 1014.40 1014.49 1014.59 1014.67 1014.75 1014.82 1014.88 1014.92 1014.97 1015.00 1015.05
1010.89 1010.87 1011.01 1011.30 1011.68 1012.09 1012.48 1012.79 1012.99 1013.04 1012.95 1012.75 1012.47 1012.15 1011.84 1011.59 1011.42 1011.36 1011.41 1011.55 1011.78 1012.06 1012.38 1012.70 1013.01 1013.29 1013.53 1013.74 1013.91 1014.05 1014.16 1014.24 1014.31 1014.37 1014.43 1014.48 1014.52 1014.57 1014.61 1014.65 1014.69 1014.72 1014.75 1014.77 1014.78 1014.80 1014.81 1014.82 1014.84
Thickness
5666 5669 5670 5664 5652 5644 5650 5667 5684 5693 5701 5712 5718 5720 5720 5722 5723 5726 5752 5764 5765 5764 5762 5760 5759 5758 5758 5758 5758 5758 5757 5756 5755 5754 5752 5751 5749 5748 5746 5745 5743 5741 5740 5738 5736 5734 5733 5731 5730
5656 5658 5655 5646 5635 5634 5645 5666 5677 5687 5697 5705 5710 5715 5717 5722 5734 5740 5748 5755 5759 5758 5756 5755 5754 5753 5753 5754 5754 5754 5754 5753 5752 5751 5749 5748 5746 5745 5743 5742 5740 5738 5736 5734 5732 5731 5730 5728 5727
5646 5646 5637 5629 5627 5633 5648 5666 5673 5683 5690 5695 5698 5707 5711 5717 5727 5734 5743 5750 5751 5751 5750 5749 5749 5747 5747 5748 5749 5749 5749 5749 5748 5747 5746 5744 5743 5741 5740 5738 5737 5735 5733 5731 5729 5727 5726 5725 5724
5631 5626 5622 5618 5626 5638 5649 5659 5663 5668 5677 5686 5689 5692 5704 5717 5723 5730 5737 5741 5742 5743 5743 5743 5743 5742 5742 5743 5743 5744 5744 5744 5744 5743 5742 5741 5739 5738 5737 5735 5733 5731 5729 5727 5725 5724 5723 5722 5721
5616 5610 5605 5609 5621 5633 5642 5649 5654 5654 5662 5673 5677 5681 5692 5707 5717 5724 5728 5730 5731 5733 5735 5736 5736 5736 5736 5737 5738 5738 5739 5740 5739 5739 5738 5737 5736 5734 5733 5731 5729 5727 5725 5724 5722 5721 5720 5719 5718
5597 5595 5592 5601 5614 5626 5633 5639 5642 5646 5653 5662 5667 5673 5683 5696 5704 5710 5716 5719 5723 5725 5727 5728 5729 5729 5730 5731 5732 5732 5733 5734 5734 5734 5734 5733 5732 5730 5729 5727 5725 5724 5722 5720 5719 5718 5717 5716 5715
5583 5581 5584 5594 5603 5612 5623 5629 5631 5636 5641 5650 5658 5662 5673 5683 5690 5698 5704 5708 5712 5716 5718 5720 5721 5722 5723 5724 5725 5726 5727 5728 5729 5729 5729 5728 5727 5726 5724 5722 5721 5720 5718 5717 5715 5714 5713 5712 5712
5577 5572 5578 5584 5593 5601 5613 5618 5623 5626 5633 5644 5649 5651 5659 5671 5679 5686 5691 5695 5699 5704 5708 5710 5713 5715 5715 5716 5718 5719 5720 5722 5723 5723 5723 5723 5722 5721 5720 5718 5717 5716 5714 5713 5712 5711 5710 5709 5708
5570 5560 5564 5575 5585 5593 5600 5603 5609 5617 5623 5630 5637 5643 5652 5660 5666 5671 5676 5681 5687 5691 5696 5700 5703 5706 5707 5708 5710 5712 5713 5714 5716 5717 5717 5717 5716 5716 5714 5714 5712 5711 5710 5709 5708 5707 5706 5705 5705
5554 5548 5561 5573 5578 5581 5586 5590 5595 5601 5608 5615 5623 5632 5641 5646 5651 5655 5661 5667 5675 5680 5686 5691 5694 5697 5699 5701 5702 5704 5705 5707 5708 5710 5710 5711 5711 5710 5709 5708 5707 5706 5705 5704 5704 5703 5702 5701 5701
5546 5547 5558 5565 5569 5571 5575 5580 5585 5587 5595 5603 5608 5618 5626 5632 5637 5643 5649 5657 5664 5671 5676 5681 5685 5689 5691 5693 5694 5696 5698 5699 5701 5702 5704 5704 5704 5704 5704 5703 5702 5701 5700 5700 5699 5699 5698 5697 5697
5541 5547 5551 5556 5559 5561 5563 5569 5574 5580 5590 5596 5601 5607 5614 5620 5625 5632 5639 5646 5654 5660 5667 5672 5675 5680 5684 5686 5687 5689 5691 5692 5694 5695 5697 5698 5698 5699 5698 5698 5697 5696 5696 5695 5695 5694 5694 5693 5693
5532 5537 5543 5547 5549 5551 5555 5560 5564 5575 5583 5586 5593 5598 5604 5611 5617 5624 5631 5638 5644 5650 5656 5662 5666 5671 5675 5678 5680 5682 5684 5686 5687 5689 5690 5692 5693 5693 5693 5693 5692 5692 5691 5690 5690 5689 5689 5689 5689
5527 5529 5532 5537 5541 5545 5548 5554 5556 5571 5573 5577 5583 5589 5595 5602 5609 5615 5622 5628 5635 5641 5647 5653 5657 5662 5666 5670 5673 5676 5677 5679 5681 5682 5684 5686 5688 5688 5688 5687 5687 5687 5686 5686 5685 5685 5684 5684 5684
5521 5519 5522 5530 5535 5538 5541 5547 5553 5563 5564 5569 5575 5582 5588 5595 5601 5607 5614 5620 5627 5633 5639 5645 5650 5654 5659 5663 5666 5669 5671 5673 5675 5677 5678 5680 5682 5682 5683 5682 5682 5682 5681 5681 5680 5680 5679 5679 5679
5511 5508 5507 5523 5531 5534 5531 5539 5552 5555 5557 5562 5568 5573 5580 5588 5594 5601 5607 5613 5620 5625 5630 5636 5642 5646 5651 5656 5659 5663 5665 5667 5669 5671 5673 5674 5675 5676 5677 5677 5677 5677 5676 5676 5675 5675 5674 5673 5673
5499 5495 5501 5515 5527 5528 5527 5534 5548 5550 5551 5557 5562 5567 5572 5579 5586 5593 5599 5605 5612 5619 5623 5627 5632 5638 5643 5649 5652 5655 5657 5660 5662 5665 5667 5668 5669 5670 5672 5672 5672 5671 5671 5670 5670 5669 5669 5667 5667
5493 5494 5503 5509 5520 5522 5521 5531 5543 5548 5550 5554 5557 5561 5566 5572 5580 5586 5592 5598 5605 5610 5614 5619 5624 5630 5635 5639 5643 5645 5648 5652 5655 5658 5661 5662 5663 5664 5665 5666 5666 5665 5665 5664 5664 5663 5663 5662 5661
5500 5501 5503 5512 5519 5519 5523 5531 5541 5546 5547 5550 5552 5555 5560 5567 5574 5579 5585 5591 5596 5601 5606 5611 5616 5622 5627 5631 5635 5637 5641 5645 5648 5652 5654 5656 5657 5658 5659 5660 5660 5660 5660 5660 5659 5657 5656 5654 5654
5501 5500 5504 5513 5521 5523 5525 5530 5539 5543 5546 5550 5552 5554 5558 5563 5568 5573 5579 5584 5590 5595 5599 5604 5610 5615 5620 5625 5629 5633 5636 5639 5643 5645 5647 5650 5651 5652 5653 5654 5655 5655 5654 5654 5653 5652 5649 5648 5648
5504 5503 5506 5510 5518 5521 5520 5525 5532 5541 5546 5550 5552 5555 5558 5560 5564 5569 5573 5578 5583 5589 5594 5599 5604 5609 5614 5618 5622 5626 5629 5632 5634 5637 5641 5644 5646 5647 5648 5648 5649 5649 5649 5648 5648 5647 5644 5641 5640
5506 5516 5516 5515 5511 5511 5515 5513 5527 5534 5542 5547 5548 5549 5551 5554 5559 5562 5567 5571 5577 5583 5589 5594 5599 5603 5608 5613 5616 5621 5623 5626 5631 5633 5635 5637 5639 5640 5641 5642 5642 5642 5642 5642 5642 5641 5639 5636 5633
5513 5519 5517 5516 5513 5511 5514 5512 5520 5530 5536 5542 5544 5546 5549 5552 5556 5559 5563 5567 5572 5578 5584 5589 5594 5598 5603 5608 5612 5616 5618 5621 5624 5627 5629 5630 5632 5634 5634 5635 5636 5635 5634 5634 5634 5633 5632 5630 5628
5519 5518 5517 5516 5513 5511 5516 5512 5515 5522 5530 5537 5542 5545 5547 5550 5553 5555 5559 5564 5568 5573 5579 5585 5588 5593 5599 5604 5608 5611 5613 5616 5617 5619 5622 5623 5625 5626 5628 5629 5629 5628 5628 5626 5626 5625 5624 5623 5622
5518 5511 5505 5507 5507 5511 5520 5517 5517 5524 5530 5534 5538 5541 5544 5547 5550 5552 5556 5560 5565 5570 5575 5580 5585 5589 5594 5599 5603 5605 5608 5610 5612 5615 5617 5618 5619 5621 5622 5622 5622 5621 5620 5619 5618 5617 5616 5615 5613
5517 5514 5508 5508 5509 5513 5519 5518 5518 5525 5530 5534 5537 5539 5542 5545 5547 5550 5553 5557 5561 5566 5571 5576 5581 5585 5589 5593 5597 5600 5602 5605 5607 5610 5611 5613 5614 5615 5615 5616 5615 5614 5612 5611 5609 5608 5607 5606 5605
5520 5517 5519 5512 5510 5508 5514 5517 5521 5528 5531 5533 5535 5538 5539 5542 5544 5546 5550 5554 5558 5563 5568 5573 5577 5580 5584 5588 5591 5592 5594 5597 5600 5603 5605 5607 5607 5608 5608 5608 5607 5606 5604 5603 5601 5600 5598 5597 5596
5524 5522 5516 5515 5515 5517 5517 5517 5519 5522 5526 5530 5533 5534 5536 5539 5541 5544 5547 5551 5556 5560 5565 5569 5574 5577 5579 5582 5584 5586 5588 5591 5593 5595 5598 5599 5600 5600 5601 5601 5599 5597 5596 5594 5593 5591 5590 5588 5587
5523 5523 5521 5518 5519 5519 5517 5518 5522 5522 5525 5527 5529 5530 5532 5535 5537 5540 5543 5547 5551 5555 5560 5564 5568 5570 5573 5576 5577 5579 5581 5584 5586 5587 5589 5591 5591 5592 5593 5592 5590 5589 5587 5585 5583 5581 5580 5578 5576
5527 5527 5526 5524 5519 5514 5514 5516 5525 5525 5525 5526 5526 5528 5529 5530 5532 5535 5538 5542 5546 5549 5553 5557 5560 5563 5566 5569 5571 5573 5575 5576 5577 5578 5580 5581 5582 5583 5583 5582 5580 5578 5576 5574 5573 5571 5570 5568 5567